FW5682 Weather Reports


Display with metric or nautical units.
time (UTC)temp
F
wind
direction
speed
MPH
gust
MPH
rain 1hr
in
rain 24hr
in
rain mn
in
humidity
%
barometer
mb
20260508094756 59 148 3.0 7.0 0.00 0.00 0.00 76 1014.8
20260508094256 59 172 4.0 7.0 0.00 0.00 0.00 74 1014.8
20260508093755 59 141 4.0 7.0 0.00 0.00 0.00 75 1014.8
20260508093255 60 145 4.0 6.0 0.00 0.00 0.00 77 1014.8
20260508092756 58 159 4.0 6.0 0.00 0.00 0.00 77 1014.7
20260508092254 57 161 4.0 6.0 0.00 0.00 0.00 81 1014.7
20260508091255 58 165 2.0 6.0 0.00 0.00 0.00 76 1014.8
20260508090754 59 169 4.0 6.0 0.00 0.00 0.00 77 1014.7
20260508090255 58 178 4.0 6.0 0.00 0.00 0.00 77 1014.7
20260508085754 57 193 2.0 5.0 0.00 0.00 0.00 80 1014.7
20260508085254 56 195 3.0 6.0 0.00 0.00 0.00 80 1014.7
20260508084754 56 196 4.0 6.0 0.00 0.00 0.00 81 1014.8
20260508084254 55 200 1.0 6.0 0.00 0.00 0.00 82 1014.7
20260508083754 55 200 4.0 6.0 0.00 0.00 0.00 82 1014.8
20260508083255 54 206 2.0 4.0 0.00 0.00 0.00 82 1014.8
20260508082755 54 209 3.0 4.0 0.00 0.00 0.00 81 1014.7
20260508082254 53 209 2.0 4.0 0.00 0.00 0.00 82 1014.7
20260508081754 53 209 2.0 4.0 0.00 0.00 0.00 82 1014.8
20260508081254 52 209 1.0 3.0 0.00 0.00 0.00 84 1014.7
20260508080753 52 209 1.0 3.0 0.00 0.00 0.00 83 1014.8
20260508075753 51 209 2.0 4.0 0.00 0.00 0.00 85 1014.7
20260508075254 51 209 2.0 3.0 0.00 0.00 0.00 85 1014.7
20260508074754 51 209 1.0 4.0 0.00 0.00 0.00 86 1014.5
20260508074253 51 209 2.0 4.0 0.00 0.00 0.00 86 1014.5
20260508074014 51 209 2.0 3.0 0.00 0.00 0.00 86 1014.5
20260508073520 51 209 2.0 3.0 0.00 0.00 0.00 86 1014.4
20260508072752 51 209 0.0 3.0 0.00 0.00 0.00 86 1014.4
20260508072252 51 209 1.0 3.0 0.00 0.00 0.00 86 1014.3
20260508071752 51 209 1.0 3.0 0.00 0.00 0.00 87 1014.3
20260508071252 51 209 0.0 4.0 0.00 0.00 0.00 88 1014.2
20260508070752 51 209 2.0 4.0 0.00 0.00 0.00 88 1014.1
20260508070518 50 209 1.0 2.0 0.00 0.00 0.00 89 1014.2
20260508065751 50 209 1.0 3.0 0.00 0.00 0.00 90 1014.1
20260508065252 50 209 1.0 3.0 0.00 0.00 0.00 90 1014.1
20260508064751 49 209 1.0 4.0 0.00 0.00 0.00 91 1014.1
20260508064252 49 209 2.0 4.0 0.00 0.00 0.00 91 1013.9
20260508063751 49 209 1.0 3.0 0.00 0.00 0.00 93 1013.9
20260508063250 48 209 2.0 3.0 0.00 0.00 0.00 93 1013.8
20260508062750 48 209 0.0 0.0 0.00 0.00 0.00 94 1013.9
20260508062250 47 209 0.0 0.0 0.00 0.00 0.00 94 1013.8
20260508062014 47 209 0.0 0.0 0.00 0.00 0.00 94 1013.7
20260508061251 46 209 0.0 0.0 0.00 0.00 0.00 93 1013.7
20260508060751 46 209 0.0 2.0 0.00 0.00 0.00 94 1013.7
20260508060250 46 209 0.0 2.0 0.00 0.00 0.00 93 1013.7
20260508055750 45 209 1.0 2.0 0.00 0.00 0.00 93 1013.6
20260508055256 45 209 0.0 3.0 0.00 0.00 0.00 93 1013.7
20260508054754 45 209 2.0 3.0 0.00 0.00 0.00 93 1013.5
20260508054255 44 209 1.0 3.0 0.00 0.00 0.00 93 1013.5
20260508053750 44 209 1.0 3.0 0.00 0.00 0.00 93 1013.5
20260508053250 44 209 2.0 3.0 0.00 0.00 0.00 93 1013.5
20260508052749 44 209 1.0 2.0 0.00 0.00 0.00 93 1013.4
20260508052249 44 209 1.0 2.0 0.00 0.00 0.00 93 1013.3
20260508051749 44 209 1.0 2.0 0.00 0.00 0.00 93 1013.3
20260508051249 44 221 1.0 2.0 0.00 0.00 0.00 93 1013.2
20260508050749 44 224 1.0 2.0 0.00 0.00 0.00 93 1013.1
20260508050302 44 224 2.0 3.0 0.00 0.00 0.00 93 1013.1
20260508045749 43 224 2.0 4.0 0.00 0.00 0.00 93 1013.2
20260508045248 43 224 2.0 4.0 0.00 0.00 0.00 93 1013.3
20260508044748 43 231 2.0 3.0 0.00 0.00 0.00 93 1013.1
20260508044248 43 231 2.0 3.0 0.00 0.00 0.00 92 1013.1
20260508043748 42 231 2.0 3.0 0.00 0.00 0.00 92 1013.2
20260508043248 42 231 2.0 3.0 0.00 0.00 0.00 92 1013.3
20260508042748 42 231 2.0 3.0 0.00 0.00 0.00 92 1013.2
20260508042249 42 231 2.0 3.0 0.00 0.00 0.00 91 1013.1
20260508041747 41 231 2.0 3.0 0.00 0.00 0.00 91 1013.1
20260508041249 41 231 1.0 3.0 0.00 0.00 0.00 91 1013.1
20260508040748 41 231 2.0 2.0 0.00 0.00 0.00 91 1013.1
20260508040248 41 200 2.0 2.0 0.00 0.00 0.00 91 1013.1
20260508035749 41 200 2.0 3.0 0.00 0.00 0.00 91 1013.1
20260508035248 41 200 2.0 3.0 0.00 0.00 0.00 90 1013.0
20260508034747 42 200 2.0 4.0 0.00 0.00 0.00 90 1013.0
20260508034513 42 200 2.0 4.0 0.00 0.00 0.00 90 1012.9
20260508033745 42 200 2.0 3.0 0.00 0.00 0.00 90 1013.1
20260508033246 42 200 2.0 3.0 0.00 0.00 0.00 90 1013.0
20260508032747 42 200 1.0 2.0 0.00 0.00 0.00 90 1013.0
20260508031746 42 200 1.0 2.0 0.00 0.00 0.00 90 1012.9
20260508031246 42 200 1.0 2.0 0.00 0.00 0.00 90 1012.8
20260508031014 42 200 2.0 2.0 0.00 0.00 0.00 89 1012.9
20260508030246 43 200 1.0 2.0 0.00 0.00 0.00 89 1012.8
20260508025745 43 200 1.0 2.0 0.00 0.00 0.00 89 1012.9
20260508025245 43 200 1.0 1.0 0.00 0.00 0.00 89 1012.9
20260508024745 43 200 0.0 2.0 0.00 0.00 0.00 88 1012.9
20260508024245 43 200 0.0 2.0 0.00 0.00 0.00 88 1012.9
20260508023745 44 200 1.0 2.0 0.00 0.00 0.00 88 1012.8
20260508023245 44 200 1.0 2.0 0.00 0.00 0.00 88 1012.8
20260508022746 44 200 1.0 2.0 0.00 0.00 0.00 87 1012.8
20260508022244 44 200 1.0 2.0 0.00 0.00 0.00 87 1012.8
20260508021744 45 200 1.0 2.0 0.00 0.00 0.00 86 1012.8
20260508021511 45 200 0.0 3.0 0.00 0.00 0.00 86 1012.9
20260508020743 45 200 1.0 3.0 0.00 0.00 0.00 86 1012.8
20260508020511 46 200 1.0 2.0 0.00 0.00 0.00 86 1012.8
20260508015744 46 200 1.0 3.0 0.00 0.00 0.00 86 1012.8
20260508015244 46 200 1.0 4.0 0.00 0.00 0.00 86 1012.8
20260508014744 46 200 2.0 4.0 0.00 0.00 0.00 86 1012.8
20260508014244 47 200 2.0 4.0 0.00 0.00 0.00 85 1012.8
20260508013744 47 200 2.0 4.0 0.00 0.00 0.00 85 1012.8
20260508013243 47 200 2.0 4.0 0.00 0.00 0.00 85 1012.8
20260508012744 47 200 2.0 3.0 0.00 0.00 0.00 84 1012.8
20260508012244 48 200 2.0 3.0 0.00 0.00 0.00 84 1012.8
20260508011743 48 200 2.0 4.0 0.00 0.00 0.00 84 1012.8
20260508011242 48 200 2.0 4.0 0.00 0.00 0.00 84 1012.8
20260508010743 48 200 2.0 4.0 0.00 0.00 0.00 84 1012.8
20260508010243 49 200 2.0 4.0 0.00 0.00 0.00 84 1012.9
20260508005743 49 200 3.0 4.0 0.00 0.00 0.00 84 1012.8
20260508005243 49 200 3.0 5.0 0.00 0.00 0.00 83 1012.8
20260508004744 49 200 3.0 5.0 0.00 0.00 0.00 83 1012.8
20260508004242 49 200 3.0 5.0 0.00 0.00 0.00 83 1012.8
20260508003743 49 202 3.0 5.0 0.00 0.00 0.00 83 1012.9
20260508003242 49 200 3.0 5.0 0.00 0.00 0.00 83 1012.9
20260508002742 49 200 3.0 6.0 0.00 0.00 0.00 83 1012.8
20260508002242 49 202 3.0 6.0 0.00 0.00 0.00 82 1012.9
20260508001742 49 200 4.0 6.0 0.00 0.00 0.00 82 1012.9
20260508001242 49 197 4.0 6.0 0.00 0.00 0.00 82 1013.0
20260508000742 50 197 4.0 6.0 0.00 0.00 0.00 82 1013.0
20260508000242 50 195 3.0 7.0 0.00 0.00 0.00 82 1013.0
20260507235741 50 200 4.0 7.0 0.00 0.00 0.00 82 1013.0
20260507235241 50 206 3.0 7.0 0.00 0.00 0.00 82 1013.0
20260507234741 50 207 4.0 7.0 0.00 0.00 0.00 82 1013.0
20260507233741 50 220 3.0 7.0 0.00 0.00 0.00 82 1013.0
20260507233241 50 182 3.0 7.0 0.00 0.00 0.00 82 1013.0
20260507232742 50 175 4.0 7.0 0.00 0.00 0.00 82 1013.0
20260507232241 50 180 4.0 6.0 0.00 0.00 0.00 82 1013.0
20260507231740 50 193 2.0 6.0 0.00 0.00 0.00 81 1013.1
20260507231241 50 195 3.0 6.0 0.00 0.00 0.00 81 1013.1
20260507230740 50 189 4.0 6.0 0.00 0.00 0.00 81 1013.0
20260507230240 50 196 3.0 6.0 0.00 0.00 0.00 81 1013.0
20260507225740 50 195 4.0 6.0 0.00 0.00 0.00 81 1013.0
20260507225242 51 196 3.0 6.0 0.00 0.00 0.00 81 1013.0
20260507224739 51 195 4.0 9.0 0.00 0.00 0.00 81 1013.0
20260507224239 51 180 5.0 9.0 0.00 0.00 0.00 81 1012.9
20260507223739 51 185 5.0 10.0 0.00 0.00 0.00 81 1012.9
20260507223239 51 168 4.0 10.0 0.00 0.00 0.00 80 1012.9
20260507223009 51 171 4.0 10.0 0.00 0.00 0.00 80 1012.9
20260507222239 51 164 5.0 10.0 0.00 0.00 0.00 80 1012.9
20260507222006 51 159 5.0 10.0 0.00 0.00 0.00 80 1012.9
20260507221238 51 165 3.0 11.0 0.00 0.00 0.00 80 1013.0
20260507220739 51 173 5.0 11.0 0.00 0.00 0.00 80 1013.0
20260507220240 51 176 4.0 11.0 0.00 0.00 0.00 80 1012.9
20260507215239 51 154 5.0 13.0 0.00 0.00 0.00 79 1012.9
20260507214739 51 165 6.0 13.0 0.00 0.00 0.00 79 1013.0
20260507214238 51 157 7.0 13.0 0.00 0.00 0.00 79 1013.0
20260507213738 51 157 5.0 11.0 0.00 0.00 0.00 79 1012.9
20260507213237 51 158 6.0 13.0 0.00 0.00 0.00 79 1013.0
20260507212738 51 140 5.0 13.0 0.00 0.00 0.00 78 1012.9
20260507212458 51 180 6.0 9.0 0.00 0.00 0.00 78 1012.9
20260507211736 52 151 4.0 10.0 0.00 0.00 0.00 78 1012.9
20260507211237 52 169 5.0 10.0 0.00 0.00 0.00 78 1012.9
20260507210738 52 161 5.0 13.0 0.00 0.00 0.00 77 1012.8
20260507210237 52 135 7.0 13.0 0.00 0.00 0.00 77 1012.8
20260507205737 52 165 3.0 12.0 0.00 0.00 0.00 77 1012.8
20260507205237 52 157 8.0 12.0 0.00 0.00 0.00 76 1012.7
20260507204737 52 148 5.0 12.0 0.00 0.00 0.00 76 1012.7
20260507203737 52 147 6.0 10.0 0.00 0.00 0.00 75 1012.7
20260507203236 52 159 5.0 10.0 0.00 0.00 0.00 74 1012.7
20260507202737 52 152 5.0 10.0 0.00 0.00 0.00 74 1012.7
20260507202236 52 141 4.0 9.0 0.00 0.00 0.00 74 1012.6
20260507201738 52 137 6.0 9.0 0.00 0.00 0.00 74 1012.6
20260507201236 52 158 6.0 9.0 0.00 0.00 0.00 74 1012.5
20260507200737 52 158 4.0 9.0 0.00 0.00 0.00 74 1012.4
20260507200503 52 151 4.0 9.0 0.00 0.00 0.00 73 1012.4
20260507195736 52 142 5.0 9.0 0.00 0.00 0.00 74 1012.3
20260507195238 52 165 5.0 9.0 0.00 0.00 0.00 74 1012.4
20260507194737 52 149 4.0 7.0 0.00 0.00 0.00 74 1012.4
20260507194458 53 149 4.0 7.0 0.00 0.00 0.00 74 1012.3
20260507193737 53 161 4.0 7.0 0.00 0.00 0.00 73 1012.2
20260507193237 53 151 4.0 7.0 0.00 0.00 0.00 74 1012.2
20260507192736 53 149 5.0 9.0 0.00 0.00 0.00 74 1012.1
20260507192236 53 140 5.0 9.0 0.00 0.00 0.00 73 1012.2
20260507191739 53 148 4.0 7.0 0.00 0.00 0.00 73 1012.1
20260507191236 53 144 4.0 7.0 0.00 0.00 0.00 74 1012.1
20260507190736 53 154 5.0 9.0 0.00 0.00 0.00 73 1012.1
20260507190236 53 151 4.0 9.0 0.00 0.00 0.00 73 1012.1
20260507185737 53 151 4.0 7.0 0.00 0.00 0.00 73 1012.0
20260507185237 54 154 4.0 9.0 0.00 0.00 0.00 73 1012.1
20260507184737 54 149 4.0 9.0 0.00 0.00 0.00 72 1012.0
20260507184236 54 144 4.0 9.0 0.00 0.00 0.00 72 1012.0
20260507183736 54 137 4.0 7.0 0.00 0.00 0.00 72 1012.0
20260507183237 54 144 3.0 9.0 0.00 0.00 0.00 72 1012.0
20260507182735 54 134 4.0 9.0 0.00 0.00 0.00 71 1012.0
20260507182235 54 131 5.0 9.0 0.00 0.00 0.00 70 1011.9
20260507181733 54 149 3.0 9.0 0.00 0.00 0.00 71 1012.0
20260507181234 54 149 4.0 10.0 0.00 0.00 0.00 70 1011.9
20260507180733 55 151 4.0 10.0 0.00 0.00 0.00 71 1011.9
20260507180233 55 151 4.0 7.0 0.00 0.00 0.00 71 1011.8
20260507175954 55 154 4.0 7.0 0.00 0.00 0.00 70 1011.9
20260507175233 55 148 4.0 7.0 0.00 0.00 0.00 70 1011.9
20260507174733 55 159 4.0 9.0 0.00 0.00 0.00 71 1011.9
20260507174233 55 157 4.0 9.0 0.00 0.00 0.00 71 1011.9
20260507173732 55 155 5.0 9.0 0.00 0.00 0.00 71 1011.9
20260507173232 55 168 4.0 9.0 0.00 0.00 0.00 71 1012.0
20260507172732 55 169 4.0 9.0 0.00 0.00 0.00 70 1011.9
20260507172232 56 164 5.0 7.0 0.00 0.00 0.00 69 1012.0
20260507171733 56 176 4.0 10.0 0.00 0.00 0.00 69 1011.9
20260507171232 56 149 6.0 10.0 0.00 0.00 0.00 69 1012.0
20260507170732 56 144 3.0 7.0 0.00 0.00 0.00 70 1012.0
20260507170232 56 137 4.0 7.0 0.00 0.00 0.00 72 1011.9
20260507165731 55 124 6.0 7.0 0.00 0.00 0.00 73 1011.8
20260507165231 54 140 4.0 7.0 0.00 0.00 0.00 74 1012.0
20260507164731 54 144 4.0 7.0 0.00 0.00 0.00 74 1012.0
20260507164231 53 152 3.0 5.0 0.00 0.00 0.00 75 1012.1
20260507163731 53 152 3.0 4.0 0.00 0.00 0.00 75 1012.1
20260507163452 53 152 2.0 5.0 0.00 0.00 0.00 75 1012.2
20260507162730 53 152 2.0 5.0 0.00 0.00 0.00 75 1012.2
20260507162231 53 152 2.0 4.0 0.00 0.00 0.00 75 1012.2
20260507161731 54 154 2.0 7.0 0.00 0.00 0.00 75 1012.2
20260507161456 54 152 3.0 7.0 0.00 0.00 0.00 74 1012.2
20260507160729 54 155 3.0 6.0 0.00 0.00 0.00 75 1012.2
20260507160230 54 158 3.0 6.0 0.00 0.00 0.00 74 1012.3
20260507155730 54 159 3.0 6.0 0.00 0.00 0.00 74 1012.3
20260507155230 54 159 3.0 5.0 0.00 0.00 0.00 74 1012.4
20260507154731 54 161 2.0 4.0 0.00 0.00 0.00 74 1012.3
20260507154230 54 161 2.0 5.0 0.00 0.00 0.00 74 1012.4
20260507153729 54 161 2.0 5.0 0.00 0.00 0.00 73 1012.4
20260507153230 54 161 3.0 5.0 0.00 0.00 0.00 73 1012.4
20260507152729 55 161 2.0 6.0 0.00 0.00 0.00 72 1012.4
20260507152229 55 158 5.0 7.0 0.00 0.00 0.00 71 1012.5
20260507151729 56 147 4.0 7.0 0.00 0.00 0.00 71 1012.6
20260507151229 56 169 2.0 6.0 0.00 0.00 0.00 71 1012.4
20260507150229 56 152 3.0 7.0 0.00 0.00 0.00 69 1012.5
20260507145728 57 127 4.0 7.0 0.00 0.00 0.00 69 1012.5
20260507145449 57 188 5.0 9.0 0.00 0.00 0.00 70 1012.6
20260507144728 57 186 4.0 9.0 0.00 0.00 0.00 71 1012.5
20260507144228 57 195 4.0 10.0 0.00 0.00 0.00 70 1012.6
20260507143728 57 189 6.0 10.0 0.00 0.00 0.00 70 1012.7
20260507143228 57 178 2.0 7.0 0.00 0.00 0.00 71 1012.6
20260507142728 57 154 5.0 11.0 0.00 0.00 0.00 70 1012.7
20260507142228 57 144 4.0 11.0 0.00 0.00 0.00 71 1012.8
20260507141733 56 161 5.0 11.0 0.00 0.00 0.00 70 1012.8
20260507141231 55 173 4.0 10.0 0.00 0.00 0.00 72 1012.9
20260507140733 55 140 4.0 10.0 0.00 0.00 0.00 72 1012.9
20260507140227 55 137 5.0 7.0 0.00 0.00 0.00 73 1013.0
20260507135727 55 196 5.0 7.0 0.00 0.00 0.00 75 1013.1
20260507135227 54 171 4.0 7.0 0.00 0.00 0.00 76 1013.0
20260507134729 54 165 2.0 7.0 0.00 0.00 0.00 76 1013.1
20260507134227 53 164 5.0 9.0 0.00 0.00 0.00 76 1013.1
20260507133726 53 141 6.0 9.0 0.00 0.00 0.00 77 1013.1
20260507133227 53 188 4.0 10.0 0.00 0.00 0.00 76 1013.2
20260507132726 53 169 3.0 10.0 0.00 0.00 0.00 76 1013.2
20260507132226 53 171 5.0 10.0 0.00 0.00 0.00 76 1013.2
20260507131727 52 179 4.0 10.0 0.00 0.00 0.00 77 1013.2
20260507131228 52 159 5.0 10.0 0.00 0.00 0.00 77 1013.3
20260507130951 52 176 4.0 9.0 0.00 0.00 0.00 77 1013.2
20260507130226 52 199 5.0 9.0 0.00 0.00 0.00 77 1013.2
20260507125726 52 180 6.0 9.0 0.00 0.00 0.00 79 1013.4
20260507125227 52 164 3.0 9.0 0.00 0.00 0.00 79 1013.2
20260507124726 52 189 3.0 9.0 0.00 0.00 0.00 79 1013.2
20260507124226 51 162 5.0 7.0 0.00 0.00 0.00 79 1013.3
20260507123726 51 161 4.0 7.0 0.00 0.00 0.00 80 1013.3
20260507123226 51 185 4.0 5.0 0.00 0.00 0.00 81 1013.3
20260507122952 51 180 3.0 6.0 0.00 0.00 0.00 81 1013.3
20260507122225 51 179 2.0 10.0 0.00 0.00 0.00 80 1013.4
20260507121725 51 183 4.0 10.0 0.00 0.00 0.00 80 1013.4
20260507121224 51 165 6.0 10.0 0.00 0.00 0.00 80 1013.5
20260507120724 51 178 5.0 11.0 0.00 0.00 0.00 80 1013.5
20260507120227 51 155 4.0 13.0 0.00 0.00 0.00 80 1013.6
20260507115726 51 214 6.0 13.0 0.00 0.00 0.00 80 1013.5
20260507115224 51 188 3.0 9.0 0.00 0.00 0.00 80 1013.6
20260507114724 51 157 3.0 9.0 0.00 0.00 0.00 80 1013.5
20260507114224 51 147 6.0 9.0 0.00 0.00 0.00 79 1013.5
20260507113724 51 193 4.0 10.0 0.00 0.00 0.00 79 1013.5
20260507113446 51 155 6.0 10.0 0.00 0.00 0.00 79 1013.6
20260507112723 51 199 6.0 12.0 0.00 0.00 0.00 80 1013.6
20260507112222 51 199 5.0 12.0 0.00 0.00 0.00 79 1013.6
20260507111723 51 151 7.0 12.0 0.00 0.00 0.00 79 1013.6
20260507111224 51 193 5.0 12.0 0.00 0.00 0.00 79 1013.6
20260507110723 52 202 5.0 10.0 0.00 0.00 0.00 79 1013.7
20260507110236 52 161 5.0 12.0 0.00 0.00 0.00 79 1013.7
20260507105723 52 182 5.0 12.0 0.00 0.00 0.00 79 1013.7
20260507105223 52 197 4.0 11.0 0.00 0.00 0.00 80 1013.8
20260507104722 52 190 5.0 11.0 0.00 0.00 0.00 81 1013.7
20260507104444 51 171 4.0 12.0 0.00 0.00 0.00 81 1013.7
20260507103944 51 152 6.0 12.0 0.00 0.00 0.00 82 1013.7
20260507103220 51 152 6.0 11.0 0.00 0.00 0.00 82 1013.8
20260507102720 51 148 5.0 10.0 0.00 0.00 0.00 83 1013.8
20260507102220 50 164 6.0 10.0 0.00 0.00 0.00 84 1013.7
20260507101720 50 179 5.0 9.0 0.00 0.00 0.00 84 1013.7
20260507101219 49 182 5.0 9.0 0.00 0.00 0.00 85 1013.7
20260507100719 49 180 4.0 9.0 0.00 0.00 0.00 85 1013.7
20260507100219 49 183 4.0 9.0 0.00 0.00 0.00 86 1013.7
20260507095718 49 151 5.0 9.0 0.00 0.00 0.00 86 1013.8
20260507095218 48 168 3.0 7.0 0.00 0.00 0.00 86 1013.8